GLOBALSTAR M025 [-]

Last updated on Fri Dec 29 2023 00:02:56 GMT+0000 (Coordinated Universal Time)

1 25770U 99031A 23362.19241053 -.00000066 00000+0 61129-4 0 9999 2 25770 51.9842 323.2500 0001482 344.5702 113.7468 11.22548301 79066

Satellite not in orbit

GLOBALSTAR M025 [-]